Terminal Aerodrome Forecast
Issued by NWS Wichita, KS

Home | Current Version | Previous Version | Graphics & Text | Print | Product List | Glossary On
Versions: 1 2 3 4 5 6 7 8 9 10 11 12 13 14 15 16 17 18 19
000
FTUS43 KICT 261505 AAC
TAFICT
TAF AMD
KICT 261505Z 2615/2712 36014KT P6SM BKN007 OVC025
     FM261700 02015KT P6SM BKN015 OVC025
     FM270100 33012KT P6SM VCSH BKN018 OVC040
     FM270700 32015G20KT P6SM SCT020 BKN035=

USA.gov is the U.S. government's official web portal to all federal, state and local government web resources and services.